Regional Weather Roundup
Issued by NWS State College, PA

Home | Current Version | Previous Version | Text Only | Print | Product List | Glossary Off
Versions: 1 2 3 4 5 6 7 8 9 10 11 12 13 14 15 16 17 18 19 20 21 22 23 24 25 26 27 28 29 30 31 32 33 34 35 36 37 38 39 40 41 42 43 44 45 46 47 48 49 50

000
ASUS41 KCTP 102210
RWRCTP

REGIONAL WEATHER ROUNDUP
NATIONAL WEATHER SERVICE STATE COLLEGE PA
500 PM EST SAT DEC 10 2016

Note: "fair" indicates few or no clouds below 12,000 feet with no
significant weather and/or obstructions to visibility.

* = STATION THAT DOES NOT REPORT PRECIPITATION /E.G. RAIN...SNOW...ETC/
    THUNDER OR FOG.

PAZ002>004-007>009-013>016-020>023-029>032-102300-
WESTERN PENNSYLVANIA

CITY           SKY/WX    TMP DP  RH WIND       PRES   REMARKS
ERIE           SNOW      25  22  88 SW13      30.40S VSB 1/4 WCI  14
MEADVILLE      PTCLDY    22  10  60 SW9       30.38R WCI  12
FRANKLIN*        N/A     23  10  58 SW8       30.40R WCI  14
NEW CASTLE     FLURRIES  25  15  66 W9        30.44R
BEAVER COUNTY  CLOUDY    25  14  63 W9        30.43R
BUTLER*        CLOUDY    25  10  54 W12G17    30.45R WCI  14
PITTSBURGH INT FLURRIES  26  17  68 W5        30.44S
PITTSBURGH     CLOUDY    24  15  68 SW9       30.44R WCI  14
INDIANA*       CLOUDY    25  16  68 W9G16     30.44R
LATROBE        LGT SNOW  25  18  74 SW9       30.45S
WASHINGTON CO* MOCLDY    25  12  58 SW6       30.45S
$$

PAZ004>006-010>012-017>019-024>028-033>037-041-042-045-046-049>053-102300-
CENTRAL PENNSYLVANIA

CITY           SKY/WX    TMP DP  RH WIND       PRES   REMARKS
BRADFORD       LGT SNOW  20  17  88 W7        30.30R VSB 3/4 WCI  11
DUBOIS         PTCLDY    21  13  71 W12       30.35R WCI   9
CLEARFIELD     CLOUDY    23  16  74 SW7       30.38R WCI  15
JOHNSTOWN      LGT SNOW  19  16  88 W8        30.34R FOG     WCI   9
ALTOONA        CLEAR     23  14  68 W6        30.40R
STATE COLLEGE  PTCLDY    25  16  68 SW8       30.38S
WILLIAMSPORT   MOCLDY    30  17  58 W12       30.39R
SELINSGROVE    MOCLDY    29  16  58 CALM      30.43R
FT INDIANTOWN  MOCLDY    30  14  52 W10       30.42R
CAPITAL CITY   PTCLDY    31  13  47 W8        30.45R
HARRISBURG     MOCLDY    32  16  51 W12       30.44R
YORK           CLEAR     28  14  55 W6        30.44R
$$

PAZ038>040-043-044-047-048-054-055-060>062-067>071-102300-
EASTERN PENNSYLVANIA

CITY           SKY/WX    TMP DP  RH WIND       PRES   REMARKS
SCRANTON       PTCLDY    26  21  81 S3        30.34R
MOUNT POCONO   FLURRIES  21  14  74 W9G20     30.27R WCI  11
ALLENTOWN      CLEAR     31  14  49 W8        30.39R
QUAKERTOWN*    CLEAR     30  14  51 W7        30.40R
READING        PTCLDY    31  13  47 W9        30.41R
LANCASTER      CLEAR     30  17  58 NW12      30.43R
COATESVILLE    PTCLDY    30  14  51 NW13G20   30.42R
POTTSTOWN      CLEAR     30  12  47 W8        30.42R
BLUE BELL      MOCLDY    32  14  47 W3        30.40R
DOYLESTOWN     PTCLDY    32  14  47 W5        30.39R
WILLOW GROVE   NOT AVBL
NORTH PHILA    PTCLDY    34  13  41 W10       30.43R
PHILADELPHIA   MOCLDY    36  13  38 NW8       30.43R
$$




USA.gov is the U.S. government's official web portal to all federal, state and local government web resources and services.